Alpena, MI

10:05 PM EDT on May 29, 2017 (GMT -0400)
Alpena County Regional

Weather History for KAPN - May, 2012

Change the Weather History Date:

Tuesday, May 8, 2012

  Actual Average Record
Temperature  
Mean Temperature 56 °F 50 °F  
Max Temperature 68 °F 62 °F 89 °F (1936)
Min Temperature 43 °F 38 °F 22 °F (1950)
Degree Days  
Heating Degree Days 9 15  
Month to date heating degree days 106 130  
Since 1 July heating degree days 6512 7689  
Cooling Degree Days 0 0  
Month to date cooling degree days 0 0  
Year to date cooling degree days 6 2  
Growing Degree Days 6 (Base 50)    
Moisture  
Dew Point 43 °F    
Average Humidity 69    
Maximum Humidity 100    
Minimum Humidity 37    
Precipitation  
Precipitation 0.11 in 0.08 in 1.87 in (1963)
Month to date precipitation 1.17 0.63  
Year to date precipitation 8.03 7.86  
Sea Level Pressure  
Sea Level Pressure 29.79 in    
Wind  
Wind Speed 4 mph (North)    
Max Wind Speed 16 mph    
Max Gust Speed 21 mph    
Visibility 9 miles    
Events Fog , Rain    
T = Trace of Precipitation, MM = Missing Value Source: NWS Daily Summary

Daily Weather History Graph

Daily Weather History Graph

Search for Another Location

Airport or City:

Trip Planner

Search our weather history database for the weather conditions in past years. The results will help you decide how hot, cold, wet, or windy it might be!

Date:

Astronomy

May. 08, 2012 Rise Set
Actual Time 6:12 AM EDT 8:49 PM EDT
Civil Twilight 5:39 AM EDT 9:22 PM EDT
Nautical Twilight 4:57 AM EDT 10:04 PM EDT
Astronomical Twilight 4:09 AM EDT 10:53 PM EDT
Moon No Moon Rise 8:15 AM EDT (5/8)
Length of Visible Light 15h 43m
Length of Day
14h 36m
Waning Gibbous, 91% of the Moon is Illuminated
May 8
Waning Gibbous
May 12
Last Quarter
May 20
New
May 28
First Quarter
Jun 4
Full

Hourly Weather History & Observations

Time (EDT) Temp. Dew Point Humidity Pressure Visibility Wind Dir Wind Speed Gust Speed Precip Events Conditions
12:54 AM 48.9 °F 43.0 °F 80% 29.82 in 10.0 mi Calm Calm - N/A   Overcast
1:54 AM 46.9 °F 42.1 °F 83% 29.81 in 10.0 mi Calm Calm - N/A   Mostly Cloudy
2:54 AM 48.0 °F 43.0 °F 83% 29.79 in 10.0 mi Calm Calm - N/A   Overcast
3:54 AM 48.0 °F 42.1 °F 80% 29.79 in 10.0 mi WNW 4.6 mph - N/A   Mostly Cloudy
4:54 AM 46.9 °F 43.0 °F 86% 29.78 in 10.0 mi Calm Calm - N/A   Overcast
5:54 AM 44.1 °F 42.1 °F 93% 29.79 in 10.0 mi Calm Calm - N/A   Clear
6:54 AM 46.0 °F 42.1 °F 86% 29.81 in 10.0 mi Calm Calm - N/A   Clear
7:54 AM 48.0 °F 42.1 °F 80% 29.81 in 10.0 mi NNW 3.5 mph - N/A   Clear
8:00 AM 48.2 °F 42.8 °F 82% 29.80 in 10.0 mi NW 4.6 mph - N/A   Mostly Cloudy
8:54 AM 51.1 °F 41.0 °F 68% 29.81 in 10.0 mi NW 4.6 mph - N/A   Scattered Clouds
9:54 AM 57.0 °F 39.9 °F 53% 29.81 in 10.0 mi NNW 5.8 mph - N/A   Mostly Cloudy
10:54 AM 57.9 °F 37.0 °F 46% 29.82 in 10.0 mi NNW 6.9 mph - N/A   Overcast
11:54 AM 61.0 °F 39.0 °F 44% 29.81 in 10.0 mi NW 5.8 mph - N/A   Overcast
12:54 PM 64.0 °F 39.0 °F 40% 29.80 in 10.0 mi North 8.1 mph - N/A   Mostly Cloudy
1:54 PM 64.9 °F 39.9 °F 40% 29.78 in 10.0 mi NNE 5.8 mph - N/A   Scattered Clouds
2:54 PM 66.9 °F 39.9 °F 37% 29.78 in 10.0 mi Calm Calm - N/A   Mostly Cloudy
3:54 PM 66.0 °F 44.1 °F 45% 29.75 in 10.0 mi ESE 12.7 mph - N/A   Mostly Cloudy
4:54 PM 57.9 °F 44.1 °F 60% 29.76 in 10.0 mi SE 10.4 mph - N/A   Overcast
5:54 PM 59.0 °F 43.0 °F 55% 29.76 in 10.0 mi ESE 10.4 mph - N/A   Partly Cloudy
6:54 PM 55.9 °F 43.0 °F 62% 29.79 in 10.0 mi North 9.2 mph - N/A   Overcast
7:54 PM 52.0 °F 48.9 °F 89% 29.80 in 6.0 mi North 8.1 mph - 0.11 in Rain Rain
8:54 PM 51.1 °F 48.9 °F 92% 29.79 in 10.0 mi East 3.5 mph - 0.00 in   Overcast
9:54 PM 51.1 °F 48.9 °F 92% 29.80 in 10.0 mi Calm Calm - N/A   Overcast
10:54 PM 48.9 °F 48.0 °F 97% 29.80 in 10.0 mi Calm Calm - N/A   Clear
11:17 PM 46.4 °F 46.4 °F 100% 29.78 in 1.8 mi Calm Calm - N/A   Clear
11:26 PM 46.4 °F 44.6 °F 93% 29.78 in 0.5 mi Calm Calm - N/A Fog Fog
11:51 PM 44.6 °F 44.6 °F 100% 29.78 in 2.0 mi Calm Calm - N/A   Scattered Clouds
11:54 PM 46.9 °F 46.0 °F 97% 29.79 in 5.0 mi Calm Calm - N/A   Mostly Cloudy